Regional Weather Roundup
Issued by NWS

Home | Current Version | Previous Version | Graphics & Text | Print | Product List | Glossary On
Versions: 1 2 3 4 5 6 7 8 9 10 11 12 13 14 15 16 17 18 19 20 21 22 23 24 25 26 27 28 29 30 31 32 33 34 35 36 37 38 39 40 41 42 43 44 45 46 47 48 49 50
768
ASUS45 KABQ 262310
RWRNM
NEW MEXICO REGIONAL WEATHER ROUNDUP
NATIONAL WEATHER SERVICE ALBUQUERQUE NM
500 PM MDT MON SEP 26 2016

NOTE: "FAIR" MEANS FEW OR NO CLOUDS BELOW 12,000 FEET AGL WITH NO
       SIGNIFICANT WEATHER OR OBSTRUCTIONS TO VISION.

      THIS PRODUCT IS RELEASED AS TWO VERSIONS.  ONE VERSION NEAR
      THE TOP OF THE HOUR CONTAINING PRELIMINARY DATA FROM ALBUQUERQUE
      AND OTHER STATIONS.  A FINAL VERSION WITH ADDITIONAL DATA IS
      ISSUED ABOUT 10 MINUTES AFTER THE HOUR.

NMZ501-503-504-510>518-270000-
NORTHWEST PLATEAU/NORTHCENTRAL MOUNTAINS

CITY           SKY/WX    TMP DP  RH WIND       PRES   REMARKS
FARMINGTON     FAIR      75  31  19 VRB5      30.28F
LOS ALAMOS     FAIR      64  29  26 S7G16     30.42F
SANTA FE       FAIR      67  32  27 SE16G22   30.37F
TAOS           FAIR      70  34  26 SW13G21   30.38F
ANGEL FIRE     FAIR      65  34  31 SE17      30.46S

$$
NMZ402-403-502-505>509-270000-
WESTCENTRAL MOUNTAINS/SOUTHWEST MOUNTAINS

CITY           SKY/WX    TMP DP  RH WIND       PRES   REMARKS
GALLUP         FAIR      75  28  17 E14       30.32F
SILVER CITY    CLOUDY    61  35  37 SE16      30.32S

$$
NMZ407-409-411-412-270000-
SOUTHERN DESERTS

CITY           SKY/WX    TMP DP  RH WIND       PRES   REMARKS
DEMING         CLOUDY    65  39  38 E20G26    30.28F
LAS CRUCES     RAIN      54  51  90 S7        30.31F
HOLLOMAN AFB   PTSUNNY   74  34  23 W12       30.23S
ALAMOGORDO     PTSUNNY   73  32  21 W6        30.25S
T OR C         CLOUDY    70  34  26 S12       30.27S

$$
NMZ519>523-270000-
CENTRAL VALLEYS/CENTRAL HIGHLANDS

CITY           SKY/WX    TMP DP  RH WIND       PRES   REMARKS
ALBUQUERQUE    FAIR      73  28  18 E15       30.32F
DOUBLE EAGLE   MOSUNNY   70  30  23 E10       30.35F
MORIARTY ARPT  FAIR      69  28  21 SE13      30.39F
CLINES CORNERS FAIR      63  30  28 SE13      30.43F
BELEN          FAIR      71  28  20 N8        30.30F
SOCORRO        FAIR      74  29  19 E13G18    30.29S

$$
NMZ524>526-539-540-270000-
SOUTHCENTRAL MOUNTAINS

CITY           SKY/WX    TMP DP  RH WIND       PRES   REMARKS
RUIDOSO        PTSUNNY   55  36  47 SE10G16   30.43F

$$
NMZ527>531-270000-
NORTHEAST HIGHLANDS/NORTHEAST PLAINS

CITY           SKY/WX    TMP DP  RH WIND       PRES   REMARKS
LAS VEGAS      FAIR      65  30  27 S12       30.42F
RATON          FAIR      69  33  26 S6        30.36F
CLAYTON        FAIR      72  36  26 S8        30.32F

$$
NMZ532>537-270000-
EASTCENTRAL PLAINS

CITY           SKY/WX    TMP DP  RH WIND       PRES   REMARKS
TUCUMCARI      FAIR      75  32  20 SE6       30.28F
CANNON AFB     SUNNY     70  38  31 SE6       30.32S
CLOVIS AIRPORT FAIR      70  39  32 E8        30.32S

$$
NMZ028-029-538-270000-
SOUTHEAST PLAINS

CITY           SKY/WX    TMP DP  RH WIND       PRES   REMARKS
ROSWELL        FAIR      68  42  38 S9        30.29F
ARTESIA        FAIR      64  48  55 S9        30.31S
CARLSBAD       PTSUNNY   58  53  84 SW6       30.30F
HOBBS          MOSUNNY   63  41  45 E6        30.31F


$$




USA.gov is the U.S. government's official web portal to all federal, state and local government web resources and services.